[[{"header":{"parameterUnit":"m.s-1","parameterCategory":1,"la1":30.2991,"la2":30.254,"lo1":-89.0895,"lo2":-89.0444,"dy":0.0017,"dx":0.0017,"nx":28,"ny":28,"refTime":"2025-03-02T09:00:00:Z","depth":0,"parameterNumber":2,"parameterNumberName":"U-component_of_WINDS"},"data":[0,0,0,0,0,0,0,0,0,0,0,0,0,0,0,0,0,0,0,0,0,0,0,0,0,0,0,0,0,0,0,0,0,0,0,0,0,0,0,0,0,0,0,0,0,0,0,0,0,0,0,0,0,0,0,0,0,0,-1.3228,-1.3227,0,-1.3114,-1.3112,-1.3111,-1.3044,-1.3044,-1.3043,-1.3043,-1.2926,-1.2923,-1.2921,0,0,0,0,0,0,0,0,0,0,0,0,0,-1.3389,-1.3386,-1.3228,-1.3227,-1.3225,-1.3114,-1.3112,-1.3111,-1.3044,-1.3044,-1.3043,-1.3043,-1.2927,-1.2924,-1.292,0,0,0,0,0,0,0,0,0,0,0,0,0,-1.3301,-1.3385,-1.3228,-1.3178,-1.3173,-1.3114,-1.3112,-1.311,-1.3044,-1.3044,-1.3043,-1.3043,-1.2928,-1.2924,-1.292,-1.2902,0,0,-1.2907,-1.2905,0,0,0,0,0,0,0,0,-1.3306,-1.3295,-1.3187,-1.3182,-1.3175,-1.3093,-1.3126,-1.304,-1.3044,-1.3093,-1.3043,-1.3043,-1.2982,-1.2973,-1.2953,-1.2896,-1.2891,-1.2906,-1.2904,-1.2902,-1.2901,0,0,0,0,0,0,0,-1.3312,-1.33,-1.3183,-1.3186,-1.3178,-1.3162,-1.3149,-1.311,-1.3041,-1.3089,-1.3083,-1.3071,-1.2979,-1.2957,-1.2949,-1.289,-1.2906,-1.2903,-1.29,-1.2898,-1.2814,-1.2815,0,0,0,0,0,0,-1.3326,-1.3305,-1.3186,-1.3179,-1.3241,-1.3159,-1.3145,-1.312,-1.3041,-1.3029,-1.3071,-1.3068,-1.2964,-1.2954,-1.2945,-1.292,-1.2902,-1.2898,-1.2895,-1.2814,-1.2814,-1.2815,0,0,0,0,0,0,-1.333,-1.3316,-1.3191,-1.3241,-1.3224,-1.3157,-1.3129,-1.3118,-1.3096,-1.3028,-1.3016,-1.3062,-1.2964,-1.2951,-1.2913,-1.2915,-1.2896,-1.2892,-1.2814,-1.2814,-1.2815,-1.2869,0,0,0,0,0,0,-1.3335,-1.3318,-1.3311,-1.3241,-1.3221,-1.3161,-1.3129,-1.3116,-1.3089,-1.3083,-1.3016,-1.3005,-1.2962,-1.292,-1.2909,-1.2909,-1.2889,-1.2813,-1.2814,-1.2814,-1.2867,-1.2871,-1.2875,0,0,0,0,0,-1.3341,-1.333,-1.3311,-1.3297,-1.321,-1.3162,-1.315,-1.3102,-1.3089,-1.3081,-1.3038,-1.3007,-1.2916,-1.2917,-1.2904,-1.2902,-1.2813,-1.2814,-1.2814,-1.2865,-1.2871,-1.2875,0,0,0,0,0,0,-1.3401,-1.332,-1.3298,-1.3264,-1.322,-1.315,-1.3139,-1.3109,-1.3068,-1.3065,-1.3006,-1.2992,-1.296,-1.2927,-1.2929,-1.2881,-1.2861,-1.2859,-1.2904,-1.2909,-1.2913,-1.2922,-1.2885,0,0,0,0,0,-1.3411,-1.3378,-1.3309,-1.3286,-1.3265,-1.3206,-1.3183,-1.3149,-1.3102,-1.3083,-1.3037,-1.2992,-1.2953,-1.2929,-1.289,-1.2862,-1.2847,-1.2854,-1.2858,-1.2862,-1.2861,-1.2845,-1.2848,-1.2817,-1.2817,-1.2817,0,0,-1.343,-1.3382,-1.3364,-1.3297,-1.3259,-1.3227,-1.3191,-1.3158,-1.3133,-1.3078,-1.304,-1.3004,-1.295,-1.2918,-1.2901,-1.2889,-1.2867,-1.2863,-1.2867,-1.2864,-1.2846,-1.2849,-1.2852,-1.2818,-1.2818,-1.2817,0,0,-1.3449,-1.3408,-1.3385,-1.3348,-1.3291,-1.3252,-1.3247,-1.3181,-1.3156,-1.3117,-1.3075,-1.3045,-1.2979,-1.2943,-1.2916,-1.2921,-1.2892,-1.291,-1.2932,-1.2917,-1.292,-1.2922,-1.2925,-1.2926,-1.291,-1.291,-1.291,0,-1.348,-1.3429,-1.3377,-1.3347,-1.3319,-1.3267,-1.3244,-1.321,-1.3144,-1.3126,-1.3113,-1.3031,-1.2991,-1.2949,-1.2951,-1.293,-1.2923,-1.2918,-1.2924,-1.2925,-1.2926,-1.2928,-1.2929,-1.2912,-1.2912,-1.2912,-1.2912,0,-1.347,-1.3436,-1.3424,-1.3362,-1.3332,-1.3305,-1.325,-1.3226,-1.3196,-1.3158,-1.3119,-1.3069,-1.302,-1.3007,-1.2977,-1.2962,-1.2956,-1.2935,-1.2913,-1.2933,-1.2934,-1.2934,-1.2916,-1.2915,-1.2915,-1.2914,0,0,-1.3524,-1.3433,-1.343,-1.3402,-1.3335,-1.3308,-1.3279,-1.323,-1.3212,-1.3168,-1.3143,-1.3089,-1.3068,-1.3038,-1.3003,-1.2989,-1.2998,-1.2969,-1.2967,-1.2977,-1.298,-1.2998,-1.3,-1.2978,-1.2978,-1.2978,-1.2985,0,-1.3534,-1.3479,-1.3433,-1.3396,-1.3364,-1.3315,-1.329,-1.3247,-1.3211,-1.3179,-1.3139,-1.3102,-1.3077,-1.3059,-1.3043,-1.3001,-1.2998,-1.2999,-1.2955,-1.2954,-1.2971,-1.3,-1.3019,-1.3028,-1.2985,-1.2985,-1.2985,0,-1.3538,-1.3496,-1.3457,-1.3394,-1.3379,-1.3358,-1.331,-1.3279,-1.323,-1.3205,-1.3171,-1.3134,-1.3102,-1.3084,-1.3039,-1.3041,-1.302,-1.2996,-1.2996,-1.299,-1.2972,-1.2997,-1.303,-1.3032,-1.2985,-1.2985,-1.2985,0,-1.3582,-1.3516,-1.3484,-1.3461,-1.3387,-1.3374,-1.3342,-1.3292,-1.3266,-1.3224,-1.3207,-1.3162,-1.3138,-1.3104,-1.3057,-1.3048,-1.3018,-1.2995,-1.2997,-1.2998,-1.2993,-1.2995,-1.3025,-1.2978,-1.2978,-1.2978,-1.2978,0,-1.3599,-1.3577,-1.3503,-1.3484,-1.3458,-1.3404,-1.338,-1.3344,-1.3301,-1.3274,-1.3228,-1.3204,-1.3142,-1.311,-1.3073,-1.3042,-1.3031,-1.3011,-1.3001,-1.3015,-1.3018,-1.3002,-1.3,-1.2978,-1.2978,-1.2978,-1.2978,0,-1.3645,-1.3595,-1.3557,-1.349,-1.3473,-1.3457,-1.34,-1.338,-1.3341,-1.3308,-1.3297,-1.3236,-1.3197,-1.3146,-1.309,-1.3065,-1.304,-1.3024,-1.3057,-1.3051,-1.3056,-1.3057,-1.3078,-1.3078,-1.3031,-1.3031,-1.3032,0,-1.3659,-1.3641,-1.3573,-1.3552,-1.3522,-1.3488,-1.3461,-1.3408,-1.3382,-1.3325,-1.3312,-1.3269,-1.3231,-1.3171,-1.3122,-1.308,-1.3064,-1.3074,-1.3057,-1.3072,-1.3066,-1.3068,-1.3066,-1.3079,-1.3079,-1.308,-1.3081,0,-1.369,-1.3667,-1.363,-1.3586,-1.3555,-1.3517,-1.3477,-1.3463,-1.3401,-1.3374,-1.3334,-1.3305,-1.3248,-1.3207,-1.3158,-1.3126,-1.3094,-1.3086,-1.3084,-1.3099,-1.312,-1.311,-1.307,-1.3086,-1.3086,-1.3085,-1.3085,-1.3085,-1.3722,-1.3704,-1.3653,-1.3615,-1.3579,-1.3543,-1.3521,-1.348,-1.3445,-1.3395,-1.3365,-1.3326,-1.3277,-1.3208,-1.3178,-1.3146,-1.3134,-1.3131,-1.3131,-1.3131,-1.3137,-1.3124,-1.3137,-1.3137,-1.3137,-1.3136,-1.3136,0,-1.3752,-1.3717,-1.3682,-1.3628,-1.3597,-1.3569,-1.3523,-1.35,-1.3466,-1.3423,-1.3388,-1.3342,-1.3301,-1.325,-1.3206,-1.3191,-1.3175,-1.3182,-1.3183,-1.3176,-1.3149,-1.3156,-1.3195,-1.3195,-1.3195,-1.3195,-1.3195,-1.3195,-1.3764,-1.3733,-1.3703,-1.3654,-1.3619,-1.358,-1.3557,-1.3524,-1.349,-1.344,-1.3406,-1.3373,-1.3327,-1.3279,-1.3241,-1.3227,-1.3214,-1.3225,-1.3207,-1.3183,-1.3178,-1.3173,-1.3179,-1.3222,-1.3222,-1.3236,-1.3236,-1.3236]},{"header":{"parameterUnit":"m.s-1","parameterCategory":1,"la1":30.2991,"la2":30.254,"lo1":-89.0895,"lo2":-89.0444,"dy":0.0017,"dx":0.0017,"nx":28,"ny":28,"refTime":"2025-03-02T09:00:00:Z","depth":0,"parameterNumber":3,"parameterNumberName":"V-component_of_WINDS"},"data":[0,0,0,0,0,0,0,0,0,0,0,0,0,0,0,0,0,0,0,0,0,0,0,0,0,0,0,0,0,0,0,0,0,0,0,0,0,0,0,0,0,0,0,0,0,0,0,0,0,0,0,0,0,0,0,0,0,0,-1.19,-1.1901,0,-1.2017,-1.2019,-1.202,-1.2118,-1.2119,-1.212,-1.2121,-1.2242,-1.2245,-1.2247,0,0,0,0,0,0,0,0,0,0,0,0,0,-1.1763,-1.1765,-1.19,-1.1901,-1.1903,-1.2017,-1.2019,-1.202,-1.2118,-1.2119,-1.2121,-1.2122,-1.2242,-1.2244,-1.2247,0,0,0,0,0,0,0,0,0,0,0,0,0,-1.1846,-1.1766,-1.19,-1.1965,-1.1973,-1.2017,-1.2019,-1.2021,-1.2118,-1.2119,-1.2121,-1.2122,-1.2241,-1.2244,-1.2247,-1.2236,0,0,-1.2258,-1.2259,0,0,0,0,0,0,0,0,-1.1841,-1.1851,-1.1954,-1.1961,-1.1969,-1.2055,-1.2015,-1.2093,-1.2117,-1.2063,-1.2121,-1.2123,-1.2179,-1.2187,-1.2206,-1.2242,-1.2247,-1.2258,-1.226,-1.2261,-1.2262,0,0,0,0,0,0,0,-1.1835,-1.1846,-1.1947,-1.1956,-1.1965,-1.199,-1.2003,-1.203,-1.211,-1.2068,-1.2075,-1.2087,-1.2183,-1.2202,-1.2209,-1.2249,-1.2258,-1.2261,-1.2263,-1.2264,-1.2285,-1.2284,0,0,0,0,0,0,-1.1819,-1.1841,-1.1943,-1.195,-1.1908,-1.1991,-1.2006,-1.2026,-1.211,-1.2125,-1.2086,-1.2092,-1.2196,-1.2205,-1.2214,-1.221,-1.2261,-1.2264,-1.2266,-1.2287,-1.2285,-1.2284,0,0,0,0,0,0,-1.1816,-1.1827,-1.1938,-1.1898,-1.1914,-1.1992,-1.2013,-1.2027,-1.2047,-1.2124,-1.2139,-1.2091,-1.2198,-1.2209,-1.2231,-1.2215,-1.2266,-1.2269,-1.2289,-1.2286,-1.2284,-1.2198,0,0,0,0,0,0,-1.1811,-1.1825,-1.1821,-1.1897,-1.1915,-1.1952,-1.2012,-1.2028,-1.2052,-1.206,-1.2133,-1.2146,-1.22,-1.2225,-1.2234,-1.2221,-1.2272,-1.229,-1.2288,-1.2285,-1.2203,-1.2193,-1.2185,0,0,0,0,0,-1.1806,-1.1792,-1.182,-1.1832,-1.1912,-1.195,-1.1961,-1.2023,-1.205,-1.2048,-1.2098,-1.2144,-1.2215,-1.2227,-1.2237,-1.2224,-1.2292,-1.2288,-1.2285,-1.2207,-1.2195,-1.2185,0,0,0,0,0,0,-1.1712,-1.1803,-1.1836,-1.1845,-1.1889,-1.1967,-1.1965,-1.2008,-1.2046,-1.2052,-1.2127,-1.2142,-1.2156,-1.2192,-1.2204,-1.222,-1.226,-1.2258,-1.2196,-1.2186,-1.2177,-1.2169,-1.2274,0,0,0,0,0,-1.1692,-1.1716,-1.1794,-1.1795,-1.1815,-1.1886,-1.1905,-1.1949,-1.1998,-1.2017,-1.2069,-1.2115,-1.2149,-1.2169,-1.2203,-1.2208,-1.2227,-1.2205,-1.2196,-1.2188,-1.2187,-1.2195,-1.2187,-1.2273,-1.2273,-1.2273,0,0,-1.1652,-1.1704,-1.1715,-1.1777,-1.1817,-1.1841,-1.1901,-1.1923,-1.1942,-1.2021,-1.2045,-1.2084,-1.2141,-1.2155,-1.2164,-1.2186,-1.2167,-1.2184,-1.2177,-1.218,-1.2191,-1.2183,-1.2176,-1.2271,-1.2271,-1.2271,0,0,-1.1591,-1.1632,-1.1639,-1.1678,-1.1737,-1.1785,-1.1786,-1.1858,-1.1887,-1.1912,-1.1973,-1.1997,-1.2051,-1.209,-1.2117,-1.2073,-1.2118,-1.2082,-1.2037,-1.2044,-1.2037,-1.2032,-1.2019,-1.2013,-1.208,-1.208,-1.208,0,-1.1534,-1.1572,-1.1637,-1.1656,-1.1683,-1.1755,-1.1764,-1.1798,-1.1866,-1.1883,-1.1906,-1.1979,-1.2021,-1.2047,-1.2036,-1.2055,-1.2061,-1.2075,-1.2033,-1.2028,-1.2024,-1.2013,-1.2007,-1.2075,-1.2076,-1.2076,-1.2077,0,-1.15,-1.1525,-1.1524,-1.1588,-1.1615,-1.1628,-1.1696,-1.1716,-1.1757,-1.1802,-1.1829,-1.1883,-1.1931,-1.194,-1.198,-1.1972,-1.1984,-1.2019,-1.2061,-1.201,-1.2001,-1.1997,-1.2069,-1.2071,-1.2072,-1.2073,0,0,-1.1384,-1.1485,-1.1483,-1.1515,-1.1586,-1.1608,-1.1625,-1.1673,-1.1689,-1.1733,-1.1751,-1.1797,-1.183,-1.1861,-1.1906,-1.1912,-1.1878,-1.1947,-1.195,-1.1935,-1.1875,-1.185,-1.1844,-1.1907,-1.1906,-1.1906,-1.1872,0,-1.1337,-1.1373,-1.1433,-1.145,-1.1476,-1.1546,-1.1562,-1.1608,-1.1651,-1.168,-1.1728,-1.176,-1.18,-1.1819,-1.1828,-1.188,-1.1867,-1.1883,-1.1927,-1.1928,-1.1913,-1.1839,-1.1812,-1.1777,-1.1868,-1.1867,-1.1867,0,-1.1287,-1.1329,-1.1348,-1.1421,-1.1434,-1.1447,-1.1497,-1.1522,-1.1577,-1.1608,-1.1643,-1.1693,-1.1717,-1.1753,-1.1789,-1.1798,-1.182,-1.1848,-1.1848,-1.1857,-1.1896,-1.1848,-1.1767,-1.1763,-1.1861,-1.1862,-1.1862,0,-1.1204,-1.1265,-1.1285,-1.1309,-1.1393,-1.1401,-1.1436,-1.1493,-1.1518,-1.1561,-1.1579,-1.1624,-1.1649,-1.1684,-1.1745,-1.1765,-1.1775,-1.1816,-1.1804,-1.1802,-1.1805,-1.1804,-1.1729,-1.1813,-1.1814,-1.1814,-1.1814,0,-1.1147,-1.1158,-1.125,-1.1262,-1.1277,-1.1345,-1.1358,-1.14,-1.1449,-1.1473,-1.1534,-1.1555,-1.1634,-1.1664,-1.1712,-1.1736,-1.1746,-1.1774,-1.1787,-1.177,-1.1767,-1.1787,-1.1792,-1.1812,-1.1813,-1.1813,-1.1813,0,-1.1058,-1.112,-1.1147,-1.1225,-1.1244,-1.1252,-1.1319,-1.1334,-1.1381,-1.141,-1.1421,-1.1495,-1.1534,-1.1598,-1.1655,-1.1688,-1.1704,-1.1724,-1.1686,-1.1694,-1.168,-1.1681,-1.1617,-1.1614,-1.1697,-1.1696,-1.1695,0,-1.1019,-1.1029,-1.1107,-1.1128,-1.1161,-1.1192,-1.1219,-1.1287,-1.1313,-1.1377,-1.1385,-1.1429,-1.1469,-1.1528,-1.1588,-1.1633,-1.1656,-1.1631,-1.1663,-1.1647,-1.166,-1.1659,-1.1662,-1.1624,-1.1622,-1.1621,-1.162,0,-1.0944,-1.0975,-1.1011,-1.1058,-1.1088,-1.1128,-1.1172,-1.1185,-1.1263,-1.1289,-1.133,-1.136,-1.142,-1.1463,-1.1517,-1.1555,-1.1602,-1.1609,-1.161,-1.1593,-1.1572,-1.1587,-1.1668,-1.1611,-1.1612,-1.1613,-1.1613,-1.1614,-1.0881,-1.0894,-1.0952,-1.0991,-1.1031,-1.1071,-1.109,-1.114,-1.1175,-1.1229,-1.1268,-1.1307,-1.1363,-1.144,-1.1475,-1.1508,-1.1529,-1.1528,-1.1528,-1.1528,-1.1523,-1.1564,-1.1518,-1.1518,-1.1518,-1.1519,-1.1519,0,-1.0812,-1.0853,-1.0888,-1.0948,-1.0979,-1.1019,-1.107,-1.1093,-1.1127,-1.1175,-1.1213,-1.1261,-1.1304,-1.1367,-1.1416,-1.143,-1.1453,-1.1441,-1.1442,-1.145,-1.15,-1.1496,-1.1422,-1.1422,-1.1422,-1.1422,-1.1422,-1.1422,-1.078,-1.0805,-1.0843,-1.0889,-1.0931,-1.097,-1.0996,-1.1033,-1.1073,-1.1124,-1.116,-1.1201,-1.1256,-1.131,-1.1352,-1.1369,-1.1386,-1.1367,-1.1392,-1.1437,-1.1446,-1.1455,-1.1452,-1.1369,-1.1369,-1.134,-1.134,-1.1339]}]]